Showing default

COURIER 1B, 58

Orbit data source: Space-Track

COURIER 1B, 58 is a payload satellite owned by SCEL (US) in LEO that was launched on Tue, 04 Oct 1960 UTC via a THOR ABLESTAR launch vehicle from the Air Force Eastern Test Range (AFETR). Payload-class satellites include a variety of spacecraft equipped with specific instruments for various scientific and technological missions. These include communications satellites like Starlink; space stations such as the ISS; scientific satellites like the Hubble; Earth observation satellites from companies like Planet Labs, Umbra, and HawkEye 360; GPS; miniature CubeSats for education and research; and military/defense satellites.

Loading next visibility...
Identifier
58, 1960-013A
Orbit
LEO
Country
Flag of USUS
Related business
Manufacturer
SCEL/PHLP
Mission
Defense Communications
Bus & Motor
COURIER, Unknown motor
Mass
225 kg wet, 225 kg dry
Launch date (UTC)
1960-10-04 (65 years ago)
Launch vehicle
THOR ABLESTAR
Launch site
Air Force Eastern Test Range (AFETR)
Object type
Payload
Rocket body
Debris
Shape & HBR
Sphere, 0.7 m
Radar Cross Section
1.327 m², Large (>1 m²)

Expand to show TLE details & history
Last TLE update: 21 hours ago

TLE from 21 hours ago
0 COURIER 1B
1 00058U 60013A   25259.96604498  .00000100  00000-0  24545-4 0  9997
2 00058  28.3267  86.0878 0164766 105.3913 256.4898 13.46415066197210
Epoch: 2025-09-16T23:11Z
TLE epoch observation values (Epoch: 2025-09-16T23:11:06.286Z)
Latitude
-0.00003°
Longitude
102.16278°
Altitude
1,114.486 km
Speed
7.282 km/s
True Right ascension
05h 44m 21s
True Declination
0° 00' 00"
Sunlit
Object was in daylight at epoch
Visualization orbit readout
Latitude
Unknown
Longitude
Unknown
Altitude
Unknown
Speed
Unknown
Apparent Right ascension
Unknown
Apparent Declination
Unknown
Sunlit
N/A
Visualization observer readout
Local Sidereal Time
13:21:42
Azimuth
Unknown
Elevation
Unknown
Doppler factor
Unknown
Orbital elements
Apogee altitude
1,212.433 km
Perigee altitude
966.354 km
Semi-major axis
7,467.53 km
Eccentricity
0.01648
Inclination
28.3267°
RAAN
86.0878°
Arg. of periapsis
105.3913°
True anomaly
254.66307°
Mean anomaly
256.4898°
Eccentric anomaly
255.57552°
Mean motion
3.36339 °/min
Orbital period
107.03 mins
BSTAR
0.000024545
Loading maneuver chart data...
Computing Atmospheric mass density...
Loading historical data...
Loading historical data...
Loading historical data...
Loading historical data...
Loading historical data...
Loading historical data...
Loading historical data...
Other satellites on launch #13 in the year 1960 (1960-10-04 UTC)

Documentation

Showing up to 5 results
|